TimeEST,TemperatureF,Dew PointF,Humidity,Sea Level PressureIn,VisibilityMPH,Wind Direction,Wind SpeedMPH,Gust SpeedMPH,PrecipitationIn,Events,Conditions,WindDirDegrees,DateUTC
12:56 AM,49.5,10.6,21,30.08,-9999.0,Variable,2.3,-,N/A,,Clear,0,2013-12-18 05:56:00
1:56 AM,46.9,11.8,24,30.07,-9999.0,WNW,4.6,-,N/A,,Mostly Cloudy,290,2013-12-18 06:56:00
2:56 AM,52.7,9.5,18,29.97,-9999.0,NW,6.9,-,N/A,,Overcast,310,2013-12-18 07:56:00
3:56 AM,50.5,11.1,21,29.98,-9999.0,Variable,3.5,-,N/A,,Overcast,0,2013-12-18 08:56:00
4:56 AM,52.2,5.7,15,29.99,-9999.0,ESE,4.6,-,N/A,,Overcast,110,2013-12-18 09:56:00
5:56 AM,51.4,10.4,19,29.95,-9999.0,WNW,4.6,-,N/A,,Overcast,300,2013-12-18 10:56:00
6:56 AM,48.2,10.6,22,29.95,-9999.0,Variable,3.5,-,N/A,,Overcast,0,2013-12-18 11:56:00
7:56 AM,48.0,8.1,20,29.96,-9999.0,West,4.6,-,N/A,,Overcast,270,2013-12-18 12:56:00
8:56 AM,47.5,10.9,23,29.95,-9999.0,WNW,4.6,-,N/A,,Mostly Cloudy,290,2013-12-18 13:56:00
9:56 AM,47.7,10.2,22,29.94,-9999.0,WNW,9.2,-,N/A,,Partly Cloudy,300,2013-12-18 14:56:00
10:56 AM,50.2,7.3,18,29.91,-9999.0,SW,3.5,-,N/A,,Scattered Clouds,220,2013-12-18 15:56:00
11:56 AM,54.9,5.2,14,29.88,-9999.0,SSE,4.6,-,N/A,,Clear,150,2013-12-18 16:56:00
12:56 PM,57.9,4.1,12,29.85,-9999.0,SE,5.8,-,N/A,,Clear,130,2013-12-18 17:56:00
1:56 PM,58.5,5.0,12,29.78,-9999.0,ESE,5.8,-,N/A,,Clear,110,2013-12-18 18:56:00
2:56 PM,57.2,8.2,14,29.72,-9999.0,NE,1.2,-,N/A,,Clear,40,2013-12-18 19:56:00
3:56 PM,54.0,10.4,18,29.72,-9999.0,West,2.3,-,N/A,,Clear,260,2013-12-18 20:56:00
4:56 PM,53.2,10.6,18,29.70,-9999.0,WNW,5.8,-,N/A,,Clear,290,2013-12-18 21:56:00
5:56 PM,50.9,8.6,18,29.71,-9999.0,West,4.6,-,N/A,,Clear,270,2013-12-18 22:56:00
6:56 PM,49.1,11.1,22,29.72,-9999.0,WNW,8.1,-,N/A,,Clear,300,2013-12-18 23:56:00
7:56 PM,48.6,11.3,22,29.73,-9999.0,West,6.9,-,N/A,,Partly Cloudy,280,2013-12-19 00:56:00
8:56 PM,51.6,7.3,17,29.70,-9999.0,Variable,4.6,-,N/A,,Mostly Cloudy,0,2013-12-19 01:56:00
9:56 PM,53.2,5.9,15,29.70,-9999.0,Variable,6.9,13.8,N/A,,Mostly Cloudy,0,2013-12-19 02:56:00
10:56 PM,50.5,9.5,19,29.70,-9999.0,Variable,4.6,-,N/A,,Overcast,0,2013-12-19 03:56:00
11:56 PM,50.2,7.3,18,29.67,-9999.0,Variable,4.6,-,N/A,,Mostly Cloudy,0,2013-12-19 04:56:00